Location: Gleizolles
(44.4833°N, 6.7667°E)
Time: 03:02:47
(UTC+00:00)

Courier 1B Rocket - All Passes

Search period start: 18 April 2025 00:00
Search period end: 28 April 2025 00:00
Orbit: 920 x 1201 km, 28.2° (Epoch: 16 April)

Date Brightness Start Highest point End Pass type
(mag) Time Alt. Az. Time Alt. Az. Time Alt. Az.
18 Apr - 01:40:16 10° SW 01:45:18 21° S 01:50:34 10° SE visible
18 Apr - 03:33:25 10° SW 03:37:47 17° SSW 03:42:18 10° SSE visible
18 Apr - 22:49:27 10° S 22:52:05 12° SSE 22:54:45 10° SE night (unlit)
19 Apr - 00:39:36 10° SW 00:44:20 20° S 00:49:18 10° SE visible
19 Apr - 02:32:06 10° SW 02:36:47 19° S 02:41:41 10° SSE visible
19 Apr - 04:28:21 10° SSW 04:29:11 10° SSW 04:30:01 10° SSW daylight
19 Apr - 23:39:09 10° SSW 23:43:25 18° S 23:47:51 10° SE night (unlit)
20 Apr - 01:31:03 10° SW 01:35:48 20° S 01:40:47 10° SE visible
20 Apr - 03:25:05 10° SW 03:28:14 13° SSW 03:31:26 10° S visible
20 Apr - 22:39:02 10° SSW 22:42:32 15° SSE 22:46:09 10° SE night (unlit)
21 Apr - 00:30:12 10° SW 00:34:52 20° S 00:39:43 10° SE visible
21 Apr - 02:23:21 10° SW 02:27:16 16° SSW 02:31:20 10° SSE visible
21 Apr - 21:39:35 10° S 21:41:44 12° SSE 21:43:54 10° SE night (unlit)
21 Apr - 23:29:34 10° SW 23:33:56 19° S 23:38:30 10° SE night (unlit)
22 Apr - 01:22:04 10° SW 01:26:20 18° S 01:30:45 10° SSE visible
22 Apr - 22:29:09 10° SSW 22:33:04 17° S 22:37:07 10° SE night (unlit)
23 Apr - 00:21:02 10° SW 00:25:24 19° S 00:29:56 10° SE night (unlit)
23 Apr - 02:15:17 10° SW 02:17:45 12° SSW 02:20:15 10° S visible
23 Apr - 21:29:03 10° SSW 21:32:14 14° SSE 21:35:30 10° SE night (unlit)
23 Apr - 23:20:12 10° SW 23:24:30 19° S 23:28:57 10° SE night (unlit)
24 Apr - 01:13:27 10° SW 01:16:50 14° SSW 01:20:21 10° SSE night (unlit)
24 Apr - 20:29:37 10° S 20:31:27 11° SSE 20:33:17 10° SE visible
24 Apr - 22:19:33 10° SW 22:23:38 18° S 22:27:50 10° SE night (unlit)
25 Apr - 00:12:07 10° SW 00:15:57 16° S 00:19:55 10° SSE night (unlit)
25 Apr - 21:19:06 10° SSW 21:22:48 16° S 21:26:33 10° SE visible
25 Apr - 23:11:03 10° SW 23:15:04 17° S 23:19:12 10° SE night (unlit)
26 Apr - 01:05:49 10° SSW 01:07:21 11° SSW 01:08:54 10° S night (unlit)
26 Apr - 20:18:56 10° SSW 20:21:59 14° SSE 20:25:04 10° SE visible
26 Apr - 22:10:11 10° SW 22:14:13 18° S 22:18:20 10° SE visible
27 Apr - 00:03:36 10° SW 00:06:29 13° SSW 00:09:26 10° SSE night (unlit)
27 Apr - 19:19:22 10° S 19:21:11 11° SSE 19:23:00 10° SE visible
27 Apr - 21:09:28 10° SW 21:13:23 17° S 21:17:20 10° SE visible
27 Apr - 23:02:10 10° SW 23:05:39 15° S 23:09:12 10° SSE night (unlit)
